Regional Weather Roundup
Issued by NWS

Home | Current Version | Previous Version | Text Only | Print | Product List | Glossary On
Versions: 1 2 3 4 5 6 7 8 9 10 11 12 13 14 15 16 17 18 19 20 21 22 23 24 25 26 27 28 29 30 31 32 33 34 35 36 37 38 39 40 41 42 43 44 45 46 47 48 49 50
000
ASHW40 PHFO 131612
RWRHI

WEATHER ROUNDUP FOR HAWAII
NATIONAL WEATHER SERVICE HONOLULU HI
600 AM HST WED DEC 13 2017

THIS IS AN AUTOMATED REPORT THAT HAS NOT BEEN QUALITY CONTROLLED.

NOTE..."FAIR" INDICATES FEW OR NO CLOUDS BELOW 12,000 FEET WITH NO
SIGNIFICANT WEATHER AND/OR OBSTRUCTIONS TO VISIBILITY.

* - THESE SITES REPORT LIMITED FIELDS
# - BUOY DATA PROVIDED BY PACIFIC ISLANDS OCEAN OBSERVING SYSTEM.

HIZ001>004-131700-
KAUAI-NIIHAU-

CITY           SKY/WX    TMP DP  RH WIND       PRES   REMARKS
LIHUE APT      CLOUDY    66  57  72 N13       30.04R
PORT ALLEN*      N/A     63 N/A N/A NE6         N/A
POIPU*           N/A     70 N/A N/A N9G23       N/A
PRINCEVILLE*   NOT AVBL
KOKOLE POINT*  NOT AVBL
MOLOAA DAIRY*    N/A     68  55  64 NW3G14      N/A
WAIMEA HTS*    NOT AVBL
PUU OPAE*      NOT AVBL
PUU LUA*       NOT AVBL
MAKAHA RIDGE*  NOT AVBL
$$

HIZ005>011-131700-
OAHU-

CITY           SKY/WX    TMP DP  RH WIND       PRES   REMARKS
HONOLULU       PTCLDY    66  59  78 CALM      30.01R
KALAELOA       MOCLDY    67  60  78 VRB6      30.03R
KANEOHE MCB    CLOUDY    73  57  57 N13       29.99R
WHEELER FIELD  CLOUDY    66  59  77 N10       30.04R
BELLOWS*       NOT AVBL
KAHUKU*        NOT AVBL
WHEELER*       NOT AVBL
WAIANAE HARBOR NOT AVBL
DILLINGHAM*    NOT AVBL
KAHUKU TRN*      N/A     70  57  64 S7G16       N/A
KAWAILOA*        N/A     64  57  77 N9G16       N/A
KII*             N/A     72  57  60 N13G24      N/A
MAKUA RANGE*     N/A     73  57  56 NW3G22      N/A
OAHU FOREST NW NOT AVBL
SCHOFIELD BRK*   N/A     64  57  77 MISG        N/A
SCHOFIELD S*   NOT AVBL
WAIANAE VLY*   NOT AVBL
KUAOKALA*      NOT AVBL
HONOULIUULI*   NOT AVBL
MOKUOLOE IS*   NOT AVBL
PALEHUA*       NOT AVBL
WAIAWA PHB*    NOT AVBL
$$

HIZ012>013-131700-
MOLOKAI-

CITY           SKY/WX    TMP DP  RH WIND       PRES   REMARKS
MOLOKAI AIRPT  CLOUDY    70  60  70 N12G21    30.02R
KALAUPAPA      NOT AVBL
MAKAPULAPAI*   NOT AVBL
MOLOKAI 1*     NOT AVBL
PUU ALII*      NOT AVBL
$$

HIZ016-131700-
KAHOOLAWE-

CITY           SKY/WX    TMP DP  RH WIND       PRES   REMARKS
KAHOOLAWE*     NOT AVBL
HAKIOAWA*      NOT AVBL
HONOKANAIA*    NOT AVBL
KANELOA*         N/A     68  61  77 VRB16G26  30.01
KEALIALALO*    NOT AVBL
LUA MAKIKA*    NOT AVBL
$$

HIZ014>015-131700-
LANAI-

CITY           SKY/WX    TMP DP  RH WIND       PRES   REMARKS
LANAI CITY     MOCLDY    64  60  87 N14       30.03R
LANAI 1*       NOT AVBL
$$

HIZ017>028-131700-
MAUI-

CITY           SKY/WX    TMP DP  RH WIND       PRES   REMARKS
KAHULUI        MOCLDY    73  64  73 N16       30.00R
KAPALUA-W MAUI MOCLDY    70  61  73 N17       30.01
HANA AIRPORT   MOCLDY    68  68 100 W6        30.02R
HANA*            N/A     68 N/A N/A W6G12       N/A
HALEAKALA SUMM   N/A     39 -13  10 W10         N/A
MAALAEA BAY*   NOT AVBL
HALEAKALA*     NOT AVBL
KAUPO GAP*     NOT AVBL
KULA 1*          N/A    N/A N/A N/A E3          N/A
$$

HIZ023>026-131700-
BIG ISLAND OF HAWAII COAST AND LOWER SLOPES-

CITY           SKY/WX    TMP DP  RH WIND       PRES   REMARKS
KAILUA KONA    CLEAR     68  57  68 N9        29.95R
HILO           MOCLDY    63  51  65 SW5       29.98R
HONOKAA*         N/A     61 N/A N/A VRB1        N/A
KAWAIHAE MWT*    N/A     73 N/A N/A E6          N/A
KAWAIHAE*      NOT AVBL
SOUTH POINT*     N/A     63 N/A N/A W7          N/A
UPOLU AIRPORT* NOT AVBL
KAMUELA*       PTSUNNY   61  61 100 E14       30.06R
HAKALAU*         N/A    N/A N/A N/A SW2         N/A
KALOKO-HONOKO* NOT AVBL
PALI 2*          N/A     57  50  77 S9          N/A
KEALAKOMO*       N/A     68  61  77 NW3         N/A
KAUPULEHU*     NOT AVBL
KAPAPALA*        N/A     55  53  93 VRB3        N/A
LOWER KAHUKU*  NOT AVBL
PUHE CS*       NOT AVBL
PUHO CS*       NOT AVBL
PTA KEAMUKU*     N/A     55  50  82 E10         N/A
WAIKOLOA*      NOT AVBL
$$

HIZ027>028-131700-
BIG ISLAND OF HAWAII INTERIOR AND SUMMMITS-

CITY           SKY/WX    TMP DP  RH WIND       PRES   REMARKS
BRADSHAW FIELD PTCLDY    42  13  31 SE6       30.25R
MK VISITOR CEN   N/A     41  16  36 VRB3        N/A
MAUNA KEA*       N/A     28  10  47 SW41        N/A  WCI  11
MAUNA LOA*     NOT AVBL
MAUNA LOA 1*   NOT AVBL
PTA KIPUKA*      N/A    N/A N/A N/A NW6         N/A
PTA RANGE 17*    N/A    N/A N/A N/A W3          N/A
PTA WEST*        N/A     70  46  43 SE13        N/A
NENE CABIN*    NOT AVBL
AHUMOA*        NOT AVBL
PTA PORTABLE*  NOT AVBL
PUU MALI*        N/A     50  32  50 SW9         N/A
$$

HIC003-131700-
NORTHWEST ISLANDS-

CITY           SKY/WX    TMP DP  RH WIND       PRES   REMARKS
MIDWAY ISLAND    N/A     66  55  68 SE7       30.17F
MIDWAY NOS*    NOT AVBL
FRENCH FRIGATE NOT AVBL
$$

PHZ110>124-180-131700-
BUOY REPORTS

STATION/POSITION TIME  TEMP    WIND        PRES    WAVE   SWELL
                       AIR SEA DIR/SP/G            HT/PER HT/DIR
                 (UTC) (F)     (DEG/KT/KT) (MB)    (FT/S) (FT/D)
BUOY 51001       1550   69 75   30/ 16/ 21 1017.8R  22/17  21
BUOY 51101       1550   69 75   10/ 16/ 23 1018.0R  22/16  21/320
BUOY 51100       NOT AVBL
BUOY 51002       1550   77 78   20/ 10/ 14 1013.7R   6/19   7/330
BUOY 51003       1550   75 78   30/ 16/ 19 1015.2R  15/15  15/340
BUOY 51004       1550   75 79   20/  6/  8 1013.6R   7/12   7/330
WAIMEA BAY#      1502      75                N/A    15/17  13/310
MOKAPU POINT#    1534      77                N/A     8/15   7/350
LANAI#           NOT AVBL
BARBERS PT 2#    NOT AVBL
PAUWELA#         1530      78                N/A    14/15  13/320
HILO#            1557      77                N/A     9/15   7/340
KANEOHE BAY#     NOT AVBL
KANEOHE BAY 2#   NOT AVBL
HANALEI#         1552      77                N/A    15/18  13/310
KAHULUI HARBOR   1536   74 77  360/ 14/ 19 1015.6R
HONOLULU HARBOR  1536   69 77   CALM  /  2 1016.8R
PEARL HARBOR#    1530      77                N/A     1/10
KILO NALU        NOT AVBL
HILO HARBOR      1536   65 77  200/  4/  5 1014.5R
MOKUOLOE         1536   73 74  350/ 13/ 17 1016.3R
NAWILIWILI       1536   69 78  340/  3/  8 1016.7R
WHOTS BUOY       NOT AVBL
BUOY 51028       NOT AVBL
$$

......................KEY........................................
  SKY/WX - SKY CONDITIONS/PRESENT WEATHER
  TMP    - TEMPERATURE IN FAHRENHEIT
  DWPT   - DEWPOINT IN FAHRENHEIT
  RH     - RELATIVE HUMIDITY IN PERCENT
  WIND   - DIRECTION AND SPEED /MPH FOR ISLANDS...KTS FOR BUOYS/
  PRES   - MEAN SEA LEVEL PRESSURE IN INCHES OF HG
  VSB    - VISIBILITY IN MILES
  HX     - HEAT INDEX
  WCI    - WIND CHILL INDEX
  VRB    - VARIABLE WIND DIRECTION
  N/A    - NOT AVAILABLE




USA.gov is the U.S. government's official web portal to all federal, state and local government web resources and services.